Joplin, MO

11:01 PM CST on November 16, 2019 (GMT -0600)
Joplin Regional

Weather History for KJLN - September, 2019

Change the Weather History Date:

Monday, September 9, 2019

  Actual Average Record
Temperature  
Mean Temperature 84 °F 74 °F  
Max Temperature 91 °F 85 °F 100 °F (1947)
Min Temperature 75 °F 62 °F 49 °F (2004)
Degree Days  
Heating Degree Days 0 0  
Month to date heating degree days 0 0  
Since 1 July heating degree days 0 1  
Cooling Degree Days 18 9  
Month to date cooling degree days 136 93  
Year to date cooling degree days 1387 1520  
Growing Degree Days 34 (Base 50)    
Moisture  
Dew Point 69 °F    
Average Humidity 64    
Maximum Humidity 79    
Minimum Humidity 48    
Precipitation  
Precipitation 0.00 in 0.17 in 2.96 in (1930)
Month to date precipitation 0.00 1.43  
Year to date precipitation 48.89 32.40  
Sea Level Pressure  
Sea Level Pressure 29.97 in    
Wind  
Wind Speed 9 mph ()    
Max Wind Speed 21 mph    
Max Gust Speed 28 mph    
Visibility 10.0 miles    
Events      
T = Trace of Precipitation, MM = Missing Value Source: Averaged Metar Reports

Daily Weather History Graph

Daily Weather History Graph

Search for Another Location

Airport or City:

Astronomy

Sep. 09, 2019 Rise Set
Actual Time 6:55 AM CDT 7:35 PM CDT
Civil Twilight 6:28 AM CDT 8:01 PM CDT
Nautical Twilight 5:57 AM CDT 8:32 PM CDT
Astronomical Twilight 5:25 AM CDT 9:03 PM CDT
Moon 5:24 PM CDT (9/9) 2:33 AM CDT (9/9)
Length of Visible Light 13h 32m
Length of Day
12h 39m
Waxing Gibbous, 83% of the Moon is Illuminated
Sep 9
Waxing Gibbous
Sep 13
Full
Sep 21
Last Quarter
Sep 28
New
Oct 5
First Quarter

Hourly Weather History & Observations

Time (CDT) Temp. Heat Index Dew Point Humidity Pressure Visibility Wind Dir Wind Speed Gust Speed Precip Events Conditions
12:53 AM 78.1 °F - 66.9 °F 68% 29.95 in 10.0 mi SSE 9.2 mph - N/A   Clear
1:53 AM 77.0 °F - 68.0 °F 74% 29.95 in 10.0 mi SSE 9.2 mph - N/A   Clear
2:53 AM 75.9 °F - 68.0 °F 76% 29.95 in 10.0 mi SSE 9.2 mph - N/A   Clear
3:53 AM 75.9 °F - 68.0 °F 76% 29.96 in 10.0 mi SSE 9.2 mph - N/A   Clear
4:53 AM 77.0 °F - 68.0 °F 74% 29.97 in 10.0 mi SSE 10.4 mph - N/A   Clear
5:53 AM 77.0 °F - 68.0 °F 74% 29.98 in 10.0 mi SSE 9.2 mph - N/A   Clear
6:53 AM 75.9 °F - 68.0 °F 76% 29.99 in 10.0 mi South 10.4 mph - N/A   Clear
7:53 AM 77.0 °F - 66.9 °F 71% 30.00 in 10.0 mi South 10.4 mph - N/A   Clear
8:53 AM 80.1 °F 82.7 °F 68.0 °F 67% 30.01 in 10.0 mi South 10.4 mph - N/A   Clear
9:53 AM 84.0 °F 87.0 °F 68.0 °F 58% 30.01 in 10.0 mi South 12.7 mph - N/A   Clear
10:53 AM 87.1 °F 90.6 °F 68.0 °F 53% 30.01 in 10.0 mi SSW 11.5 mph - N/A   Clear
11:53 AM 89.1 °F 93.7 °F 69.1 °F 52% 30.00 in 10.0 mi SSW 11.5 mph 19.6 mph N/A   Clear
12:53 PM 90.0 °F 94.5 °F 69.1 °F 50% 29.99 in 10.0 mi South 15.0 mph 23.0 mph N/A   Clear
1:53 PM 91.0 °F 95.6 °F 69.1 °F 48% 29.98 in 10.0 mi South 18.4 mph 25.3 mph N/A   Clear
2:53 PM 91.0 °F 96.6 °F 70.0 °F 50% 29.96 in 10.0 mi South 12.7 mph 24.2 mph N/A   Clear
3:53 PM 91.0 °F 95.6 °F 69.1 °F 48% 29.96 in 10.0 mi South 16.1 mph 24.2 mph N/A   Partly Cloudy
4:53 PM 90.0 °F 94.5 °F 69.1 °F 50% 29.94 in 10.0 mi South 13.8 mph 23.0 mph N/A   Clear
5:53 PM 88.0 °F 91.4 °F 68.0 °F 51% 29.94 in 10.0 mi South 10.4 mph - N/A   Clear
6:53 PM 84.9 °F 89.4 °F 70.0 °F 61% 29.94 in 10.0 mi South 6.9 mph - N/A   Clear
7:53 PM 81.0 °F 84.4 °F 70.0 °F 69% 29.95 in 10.0 mi SSE 5.8 mph - N/A   Clear
8:53 PM 80.1 °F 82.9 °F 69.1 °F 69% 29.95 in 10.0 mi SE 4.6 mph - N/A   Clear
9:53 PM 78.1 °F - 69.1 °F 74% 29.97 in 10.0 mi SE 4.6 mph - N/A   Clear
10:53 PM 78.1 °F - 70.0 °F 76% 29.98 in 10.0 mi SE 8.1 mph - N/A   Clear
11:53 PM 77.0 °F - 69.1 °F 76% 29.99 in 10.0 mi SSE 9.2 mph - N/A   Clear